Time,TemperatureF,DewpointF,PressureIn,WindDirection,WindDirectionDegrees,WindSpeedMPH,WindSpeedGustMPH,Humidity,HourlyPrecipIn,Conditions,Clouds,dailyrainin,SoftwareType,DateUTC
2013-01-08 00:03:00,72.1,59.7,29.32,East,90,0.0,0.0,65,0.00,CLR,,0.00,WeatherDisplay:10.37,2013-01-07 13:03:00,
2013-01-08 00:08:00,72.0,59.6,29.32,South,180,0.0,0.0,65,0.00,CLR,,0.00,WeatherDisplay:10.37,2013-01-07 13:08:00,
2013-01-08 00:13:00,71.8,59.4,29.32,SSW,202,0.0,0.0,65,0.00,CLR,,0.00,WeatherDisplay:10.37,2013-01-07 13:13:00,
2013-01-08 00:18:00,71.8,59.4,29.29,NNE,22,0.0,0.0,65,0.00,CLR,,0.00,WeatherDisplay:10.37,2013-01-07 13:18:00,
2013-01-08 00:24:00,71.6,59.6,29.29,ENE,68,0.0,0.0,66,0.00,CLR,,0.00,WeatherDisplay:10.37,2013-01-07 13:24:00,
2013-01-08 00:29:00,71.6,59.6,29.29,ENE,68,0.0,0.0,66,0.00,CLR,,0.00,WeatherDisplay:10.37,2013-01-07 13:29:00,
2013-01-08 00:34:00,71.4,59.9,29.32,ENE,68,0.0,0.0,67,0.00,CLR,,0.00,WeatherDisplay:10.37,2013-01-07 13:34:00,
2013-01-08 00:39:00,71.2,59.7,29.32,ENE,68,0.0,0.0,67,0.00,CLR,,0.00,WeatherDisplay:10.37,2013-01-07 13:39:00,
2013-01-08 00:44:00,71.1,59.5,29.32,ESE,112,0.0,0.0,67,0.00,CLR,,0.00,WeatherDisplay:10.37,2013-01-07 13:44:00,
2013-01-08 00:49:00,70.9,59.4,29.32,SE,135,0.0,0.0,67,0.00,CLR,,0.00,WeatherDisplay:10.37,2013-01-07 13:49:00,
2013-01-08 00:54:00,70.7,59.2,29.32,SW,225,0.0,0.0,67,0.00,CLR,,0.00,WeatherDisplay:10.37,2013-01-07 13:54:00,
2013-01-08 00:59:00,70.7,59.2,29.32,NNW,338,0.0,0.0,67,0.00,CLR,,0.00,WeatherDisplay:10.37,2013-01-07 13:59:00,
2013-01-08 01:04:00,70.5,59.0,29.32,North,0,0.0,0.0,67,0.00,CLR,,0.00,WeatherDisplay:10.37,2013-01-07 14:04:00,
2013-01-08 01:09:00,70.3,59.3,29.32,NNW,338,0.0,0.0,68,0.00,CLR,,0.00,WeatherDisplay:10.37,2013-01-07 14:09:00,
2013-01-08 01:14:00,70.3,59.3,29.32,NNW,338,0.0,0.0,68,0.00,CLR,,0.00,WeatherDisplay:10.37,2013-01-07 14:14:00,
2013-01-08 01:19:00,70.2,59.1,29.29,ENE,68,0.0,0.0,68,0.00,CLR,,0.00,WeatherDisplay:10.37,2013-01-07 14:19:00,
2013-01-08 01:24:00,70.0,58.9,29.29,ENE,68,0.0,0.0,68,0.00,CLR,,0.00,WeatherDisplay:10.37,2013-01-07 14:24:00,
2013-01-08 01:29:00,69.8,59.2,29.29,ENE,68,0.0,0.0,69,0.00,CLR,,0.00,WeatherDisplay:10.37,2013-01-07 14:29:00,
2013-01-08 01:34:00,69.8,59.2,29.29,SE,135,0.0,0.0,69,0.00,CLR,,0.00,WeatherDisplay:10.37,2013-01-07 14:34:00,
2013-01-08 01:39:00,69.6,59.4,29.29,SE,135,0.0,0.0,70,0.00,CLR,,0.00,WeatherDisplay:10.37,2013-01-07 14:39:00,
2013-01-08 01:44:00,69.4,58.8,29.29,SE,135,0.0,0.0,69,0.00,CLR,,0.00,WeatherDisplay:10.37,2013-01-07 14:44:00,
2013-01-08 01:49:00,69.4,59.2,29.29,SW,225,0.0,0.0,70,0.00,CLR,,0.00,WeatherDisplay:10.37,2013-01-07 14:49:00,
2013-01-08 01:54:00,69.3,59.1,29.29,NW,315,0.0,0.0,70,0.00,CLR,,0.00,WeatherDisplay:10.37,2013-01-07 14:54:00,
2013-01-08 01:59:00,69.3,59.1,29.29,West,270,0.0,0.0,70,0.00,CLR,,0.00,WeatherDisplay:10.37,2013-01-07 14:59:00,
2013-01-08 02:04:00,69.1,59.3,29.26,South,180,0.0,0.0,71,0.00,CLR,,0.00,WeatherDisplay:10.37,2013-01-07 15:04:00,
2013-01-08 02:09:00,69.1,59.3,29.26,SSE,158,0.0,0.0,71,0.00,CLR,,0.00,WeatherDisplay:10.37,2013-01-07 15:09:00,
2013-01-08 02:14:00,69.1,59.3,29.26,SE,135,0.0,0.0,71,0.00,CLR,,0.00,WeatherDisplay:10.37,2013-01-07 15:14:00,
2013-01-08 02:19:00,68.9,59.1,29.26,ENE,68,0.0,0.0,71,0.00,CLR,,0.00,WeatherDisplay:10.37,2013-01-07 15:19:00,
2013-01-08 02:24:00,68.9,59.1,29.26,NE,45,0.0,0.0,71,0.00,CLR,,0.00,WeatherDisplay:10.37,2013-01-07 15:24:00,
2013-01-08 02:29:00,68.9,59.5,29.26,ESE,112,0.0,0.0,72,0.00,CLR,,0.00,WeatherDisplay:10.37,2013-01-07 15:29:00,
2013-01-08 02:34:00,68.7,59.3,29.26,East,90,0.0,0.0,72,0.00,CLR,,0.00,WeatherDisplay:10.37,2013-01-07 15:34:00,
2013-01-08 02:39:00,68.7,59.3,29.26,ENE,68,0.0,0.0,72,0.00,CLR,,0.00,WeatherDisplay:10.37,2013-01-07 15:39:00,
2013-01-08 02:44:00,68.5,59.2,29.26,ENE,68,0.0,0.0,72,0.00,CLR,,0.00,WeatherDisplay:10.37,2013-01-07 15:44:00,
2013-01-08 02:49:00,68.5,59.2,29.26,ENE,68,0.0,0.0,72,0.00,CLR,,0.00,WeatherDisplay:10.37,2013-01-07 15:49:00,
2013-01-08 02:54:00,68.4,59.0,29.26,North,0,0.0,0.0,72,0.00,CLR,,0.00,WeatherDisplay:10.37,2013-01-07 15:54:00,
2013-01-08 02:59:00,68.2,58.8,29.26,WSW,248,0.0,0.0,72,0.00,CLR,,0.00,WeatherDisplay:10.37,2013-01-07 15:59:00,
2013-01-08 03:04:00,68.2,58.4,29.24,WNW,292,0.0,0.0,71,0.00,CLR,,0.00,WeatherDisplay:10.37,2013-01-07 16:04:00,
2013-01-08 03:09:00,68.2,58.8,29.24,West,270,0.0,0.0,72,0.00,CLR,,0.00,WeatherDisplay:10.37,2013-01-07 16:09:00,
2013-01-08 03:14:00,68.2,58.8,29.24,West,270,0.0,0.0,72,0.00,CLR,,0.00,WeatherDisplay:10.37,2013-01-07 16:14:00,
2013-01-08 03:19:00,68.2,58.8,29.24,West,270,0.0,0.0,72,0.00,CLR,,0.00,WeatherDisplay:10.37,2013-01-07 16:19:00,
2013-01-08 03:24:00,68.0,58.6,29.24,WNW,292,0.0,0.0,72,0.00,CLR,,0.00,WeatherDisplay:10.37,2013-01-07 16:24:00,
2013-01-08 03:29:00,68.0,58.2,29.24,WSW,248,0.0,0.0,71,0.00,CLR,,0.00,WeatherDisplay:10.37,2013-01-07 16:29:00,
2013-01-08 03:34:00,68.0,58.6,29.20,WNW,292,0.0,0.0,72,0.00,CLR,,0.00,WeatherDisplay:10.37,2013-01-07 16:34:00,
2013-01-08 03:39:00,68.0,58.6,29.20,WNW,292,0.0,0.0,72,0.00,CLR,,0.00,WeatherDisplay:10.37,2013-01-07 16:39:00,
2013-01-08 03:44:00,67.8,58.5,29.20,WSW,248,0.0,0.0,72,0.00,CLR,,0.00,WeatherDisplay:10.37,2013-01-07 16:44:00,
2013-01-08 03:49:00,67.8,58.5,29.24,SSW,202,0.0,0.0,72,0.00,CLR,,0.00,WeatherDisplay:10.37,2013-01-07 16:49:00,
2013-01-08 03:54:00,67.8,58.8,29.24,WNW,292,2.3,0.0,73,0.00,CLR,,0.00,WeatherDisplay:10.37,2013-01-07 16:54:00,
2013-01-08 03:59:00,67.8,58.5,29.24,SSW,202,0.0,0.0,72,0.00,CLR,,0.00,WeatherDisplay:10.37,2013-01-07 16:59:00,
2013-01-08 04:04:00,67.6,58.3,29.20,WSW,248,0.0,0.0,72,0.00,CLR,,0.00,WeatherDisplay:10.37,2013-01-07 17:04:00,
2013-01-08 04:09:00,67.6,58.3,29.20,SSW,202,0.0,0.0,72,0.00,CLR,,0.00,WeatherDisplay:10.37,2013-01-07 17:09:00,
2013-01-08 04:14:00,67.6,58.7,29.20,West,270,0.0,0.0,73,0.00,CLR,,0.00,WeatherDisplay:10.37,2013-01-07 17:14:00,
2013-01-08 04:19:00,67.6,58.7,29.20,SW,225,0.0,0.0,73,0.00,CLR,,0.00,WeatherDisplay:10.37,2013-01-07 17:19:00,
2013-01-08 04:24:00,67.6,58.7,29.20,SE,135,0.0,0.0,73,0.00,CLR,,0.00,WeatherDisplay:10.37,2013-01-07 17:24:00,
2013-01-08 04:29:00,67.6,58.7,29.20,SE,135,0.0,0.0,73,0.00,CLR,,0.00,WeatherDisplay:10.37,2013-01-07 17:29:00,
2013-01-08 04:34:00,67.6,59.1,29.20,NNW,338,0.0,0.0,74,0.00,CLR,,0.00,WeatherDisplay:10.37,2013-01-07 17:34:00,
2013-01-08 04:39:00,67.6,59.1,29.20,NNW,338,0.0,0.0,74,0.00,CLR,,0.00,WeatherDisplay:10.37,2013-01-07 17:39:00,
2013-01-08 04:44:00,67.5,58.9,29.20,NE,45,0.0,0.0,74,0.00,CLR,,0.00,WeatherDisplay:10.37,2013-01-07 17:44:00,
2013-01-08 04:49:00,67.3,58.7,29.20,ESE,112,0.0,0.0,74,0.00,CLR,,0.00,WeatherDisplay:10.37,2013-01-07 17:49:00,
2013-01-08 04:54:00,67.3,58.7,29.20,WSW,248,0.0,0.0,74,0.00,CLR,,0.00,WeatherDisplay:10.37,2013-01-07 17:54:00,
2013-01-08 04:59:00,67.1,58.9,29.20,ESE,112,0.0,0.0,75,0.00,CLR,,0.00,WeatherDisplay:10.37,2013-01-07 17:59:00,
2013-01-08 05:04:00,67.1,58.9,29.20,NNE,22,0.0,0.0,75,0.00,CLR,,0.00,WeatherDisplay:10.37,2013-01-07 18:04:00,
2013-01-08 05:09:00,67.1,58.9,29.20,North,0,0.0,0.0,75,0.00,CLR,,0.00,WeatherDisplay:10.37,2013-01-07 18:09:00,
2013-01-08 05:14:00,66.9,58.7,29.20,WSW,248,0.0,0.0,75,0.00,CLR,,0.00,WeatherDisplay:10.37,2013-01-07 18:14:00,
2013-01-08 05:19:00,66.9,58.7,29.20,SSW,202,0.0,0.0,75,0.00,CLR,,0.00,WeatherDisplay:10.37,2013-01-07 18:19:00,
2013-01-08 05:24:00,66.9,59.1,29.20,West,270,0.0,0.0,76,0.00,CLR,,0.00,WeatherDisplay:10.37,2013-01-07 18:24:00,
2013-01-08 05:29:00,66.9,59.1,29.20,WNW,292,0.0,0.0,76,0.00,CLR,,0.00,WeatherDisplay:10.37,2013-01-07 18:29:00,
2013-01-08 05:34:00,66.9,58.7,29.20,South,180,0.0,0.0,75,0.00,CLR,,0.00,WeatherDisplay:10.37,2013-01-07 18:34:00,
2013-01-08 05:39:00,66.9,58.7,29.20,NNE,22,0.0,0.0,75,0.00,CLR,,0.00,WeatherDisplay:10.37,2013-01-07 18:39:00,
2013-01-08 05:44:00,66.7,58.9,29.20,SSE,158,0.0,0.0,76,0.00,CLR,,0.00,WeatherDisplay:10.37,2013-01-07 18:44:00,
2013-01-08 05:49:00,66.7,58.9,29.20,SW,225,0.0,0.0,76,0.00,CLR,,0.00,WeatherDisplay:10.37,2013-01-07 18:49:00,
2013-01-08 05:54:00,66.7,58.9,29.20,South,180,1.6,0.0,76,0.00,CLR,,0.00,WeatherDisplay:10.37,2013-01-07 18:54:00,
2013-01-08 05:59:00,66.7,58.9,29.20,NNE,22,0.0,0.0,76,0.00,CLR,,0.00,WeatherDisplay:10.37,2013-01-07 18:59:00,
2013-01-08 06:04:00,66.7,58.9,29.20,WNW,292,0.0,0.0,76,0.00,CLR,,0.00,WeatherDisplay:10.37,2013-01-07 19:04:00,
2013-01-08 06:09:00,66.7,59.3,29.20,SE,135,1.2,0.0,77,0.00,CLR,,0.00,WeatherDisplay:10.37,2013-01-07 19:09:00,
2013-01-08 06:14:00,66.7,59.3,29.20,ESE,112,0.0,0.0,77,0.00,CLR,,0.00,WeatherDisplay:10.37,2013-01-07 19:14:00,
2013-01-08 06:19:00,66.9,59.5,29.20,NNE,22,0.0,0.0,77,0.00,CLR,,0.00,WeatherDisplay:10.37,2013-01-07 19:19:00,
2013-01-08 06:24:00,67.1,60.0,29.20,West,270,0.0,0.0,78,0.00,CLR,,0.00,WeatherDisplay:10.37,2013-01-07 19:24:00,
2013-01-08 06:29:00,67.1,59.6,29.20,SE,135,2.3,2.3,77,0.00,CLR,,0.00,WeatherDisplay:10.37,2013-01-07 19:29:00,
2013-01-08 06:34:00,67.3,59.8,29.20,SSW,202,2.0,0.0,77,0.00,CLR,,0.00,WeatherDisplay:10.37,2013-01-07 19:34:00,
2013-01-08 06:39:00,67.5,60.0,29.20,NNW,338,4.6,4.6,77,0.00,CLR,,0.00,WeatherDisplay:10.37,2013-01-07 19:39:00,
2013-01-08 06:44:00,67.8,60.3,29.20,ESE,112,2.3,2.3,77,0.00,CLR,,0.00,WeatherDisplay:10.37,2013-01-07 19:44:00,
2013-01-08 06:49:00,68.2,60.3,29.18,SW,225,0.0,0.0,76,0.00,CLR,,0.00,WeatherDisplay:10.37,2013-01-07 19:49:00,
2013-01-08 06:54:00,69.1,60.8,29.18,NNE,22,0.0,0.0,75,0.00,CLR,,0.00,WeatherDisplay:10.37,2013-01-07 19:54:00,
2013-01-08 07:00:00,70.0,61.3,29.18,West,270,4.6,4.6,74,0.00,CLR,,0.00,WeatherDisplay:10.37,2013-01-07 20:00:00,
2013-01-08 07:05:00,70.7,61.6,29.20,SE,135,0.0,0.0,73,0.00,CLR,,0.00,WeatherDisplay:10.37,2013-01-07 20:05:00,
2013-01-08 07:10:00,71.4,61.9,29.20,SSE,158,0.0,0.0,72,0.00,CLR,,0.00,WeatherDisplay:10.37,2013-01-07 20:10:00,
2013-01-08 07:15:00,72.1,62.2,29.20,NW,315,1.2,0.0,71,0.00,CLR,,0.00,WeatherDisplay:10.37,2013-01-07 20:15:00,
2013-01-08 07:19:00,72.5,62.2,29.18,SE,135,2.3,2.3,70,0.00,CLR,,0.00,WeatherDisplay:10.37,2013-01-07 20:19:00,
2013-01-08 07:24:00,73.2,62.4,29.18,NE,45,5.6,5.6,69,0.00,CLR,,0.00,WeatherDisplay:10.37,2013-01-07 20:24:00,
2013-01-08 07:29:00,74.1,62.0,29.18,WNW,292,1.2,1.2,66,0.00,CLR,,0.00,WeatherDisplay:10.37,2013-01-07 20:29:00,
2013-01-08 07:34:00,74.8,62.3,29.20,NNE,22,2.3,2.3,65,0.00,CLR,,0.00,WeatherDisplay:10.37,2013-01-07 20:34:00,
2013-01-08 07:39:00,75.6,61.6,29.20,NE,45,5.8,5.8,62,0.00,CLR,,0.00,WeatherDisplay:10.37,2013-01-07 20:39:00,
2013-01-08 07:44:00,76.5,62.0,29.20,NW,315,2.3,2.3,61,0.00,CLR,,0.00,WeatherDisplay:10.37,2013-01-07 20:44:00,
2013-01-08 07:49:00,77.4,61.9,29.20,WSW,248,3.3,3.3,59,0.00,CLR,,0.00,WeatherDisplay:10.37,2013-01-07 20:49:00,
2013-01-08 07:54:00,78.4,61.4,29.20,West,270,5.9,5.9,56,0.00,CLR,,0.00,WeatherDisplay:10.37,2013-01-07 20:54:00,
2013-01-08 07:59:00,79.2,61.6,29.20,NNE,22,8.1,8.1,55,0.00,CLR,,0.00,WeatherDisplay:10.37,2013-01-07 20:59:00,
2013-01-08 08:04:00,80.2,61.6,29.20,WNW,292,8.1,8.1,53,0.00,CLR,,0.00,WeatherDisplay:10.37,2013-01-07 21:04:00,
2013-01-08 08:09:00,81.5,61.1,29.20,WNW,292,5.8,5.8,50,0.00,CLR,,0.00,WeatherDisplay:10.37,2013-01-07 21:09:00,
2013-01-08 08:14:00,82.8,60.5,29.20,NNE,22,5.8,5.8,47,0.00,CLR,,0.00,WeatherDisplay:10.37,2013-01-07 21:14:00,
2013-01-08 08:19:00,83.7,60.7,29.20,NW,315,10.4,10.4,46,0.00,CLR,,0.00,WeatherDisplay:10.37,2013-01-07 21:19:00,
2013-01-08 08:24:00,84.9,61.2,29.20,WNW,292,4.6,4.6,45,0.00,CLR,,0.00,WeatherDisplay:10.37,2013-01-07 21:24:00,
2013-01-08 08:29:00,85.8,61.4,29.20,WNW,292,5.8,5.8,44,0.00,CLR,,0.00,WeatherDisplay:10.37,2013-01-07 21:29:00,
2013-01-08 08:34:00,86.9,61.0,29.20,WSW,248,5.8,5.8,42,0.00,CLR,,0.00,WeatherDisplay:10.37,2013-01-07 21:34:00,
2013-01-08 08:39:00,87.6,61.0,29.20,NNE,22,7.8,7.8,41,0.00,CLR,,0.00,WeatherDisplay:10.37,2013-01-07 21:39:00,
2013-01-08 08:44:00,88.0,59.2,29.20,West,270,8.1,8.1,38,0.00,CLR,,0.00,WeatherDisplay:10.37,2013-01-07 21:44:00,
2013-01-08 08:49:00,88.7,59.8,29.20,West,270,8.1,8.1,38,0.00,CLR,,0.00,WeatherDisplay:10.37,2013-01-07 21:49:00,
2013-01-08 08:54:00,89.4,60.5,29.20,WNW,292,8.1,8.1,38,0.00,CLR,,0.00,WeatherDisplay:10.37,2013-01-07 21:54:00,
2013-01-08 08:59:00,89.8,60.0,29.20,NNE,22,5.8,5.8,37,0.00,CLR,,0.00,WeatherDisplay:10.37,2013-01-07 21:59:00,
2013-01-08 09:04:00,90.5,59.9,29.18,NNW,338,6.9,6.9,36,0.00,CLR,,0.00,WeatherDisplay:10.37,2013-01-07 22:04:00,
2013-01-08 09:09:00,90.9,58.6,29.18,SW,225,10.4,10.4,34,0.00,CLR,,0.00,WeatherDisplay:10.37,2013-01-07 22:09:00,
2013-01-08 09:14:00,91.8,59.4,29.18,WNW,292,9.2,9.2,34,0.00,CLR,,0.00,WeatherDisplay:10.37,2013-01-07 22:14:00,
2013-01-08 09:19:00,92.3,59.0,29.18,SSW,202,10.4,10.4,33,0.00,CLR,,0.00,WeatherDisplay:10.37,2013-01-07 22:19:00,
2013-01-08 09:24:00,92.8,58.6,29.18,West,270,6.9,6.9,32,0.00,CLR,,0.00,WeatherDisplay:10.37,2013-01-07 22:24:00,
2013-01-08 09:29:00,93.0,57.9,29.18,WNW,292,4.6,4.6,31,0.00,CLR,,0.00,WeatherDisplay:10.37,2013-01-07 22:29:00,
2013-01-08 09:34:00,93.9,58.7,29.15,NNW,338,3.5,3.5,31,0.00,CLR,,0.00,WeatherDisplay:10.37,2013-01-07 22:34:00,
2013-01-08 09:39:00,94.5,58.2,29.15,NNW,338,8.1,8.1,30,0.00,CLR,,0.00,WeatherDisplay:10.37,2013-01-07 22:39:00,
2013-01-08 09:44:00,95.0,58.7,29.15,West,270,9.8,9.8,30,0.00,CLR,,0.00,WeatherDisplay:10.37,2013-01-07 22:44:00,
2013-01-08 09:49:00,95.4,58.1,29.15,NW,315,8.5,8.5,29,0.00,CLR,,0.00,WeatherDisplay:10.37,2013-01-07 22:49:00,
2013-01-08 09:54:00,95.4,58.1,29.15,NNE,22,3.1,3.3,29,0.00,CLR,,0.00,WeatherDisplay:10.37,2013-01-07 22:54:00,
2013-01-08 09:59:00,95.9,58.5,29.15,NW,315,7.6,7.6,29,0.00,CLR,,0.00,WeatherDisplay:10.37,2013-01-07 22:59:00,
2013-01-08 10:04:00,95.9,57.6,29.15,WNW,292,10.5,10.5,28,0.00,CLR,,0.00,WeatherDisplay:10.37,2013-01-07 23:04:00,
2013-01-08 10:09:00,96.1,57.7,29.15,WNW,292,4.6,4.6,28,0.00,CLR,,0.00,WeatherDisplay:10.37,2013-01-07 23:09:00,
2013-01-08 10:14:00,97.0,58.5,29.15,WNW,292,4.9,4.9,28,0.00,CLR,,0.00,WeatherDisplay:10.37,2013-01-07 23:14:00,
2013-01-08 10:19:00,97.5,57.9,29.12,West,270,11.5,11.5,27,0.00,CLR,,0.00,WeatherDisplay:10.37,2013-01-07 23:19:00,
2013-01-08 10:24:00,97.5,56.9,29.12,WNW,292,10.4,10.4,26,0.00,CLR,,0.00,WeatherDisplay:10.37,2013-01-07 23:24:00,
2013-01-08 10:29:00,98.8,57.9,29.12,WNW,292,6.0,6.0,26,0.00,CLR,,0.00,WeatherDisplay:10.37,2013-01-07 23:29:00,
2013-01-08 10:34:00,99.0,58.1,29.09,North,0,9.2,9.2,26,0.00,CLR,,0.00,WeatherDisplay:10.37,2013-01-07 23:34:00,
2013-01-08 10:39:00,99.1,58.2,29.09,NW,315,5.9,5.9,26,0.00,CLR,,0.00,WeatherDisplay:10.37,2013-01-07 23:39:00,
2013-01-08 10:44:00,99.5,57.4,29.09,NNW,338,4.3,4.3,25,0.00,CLR,,0.00,WeatherDisplay:10.37,2013-01-07 23:44:00,
2013-01-08 10:49:00,99.1,57.1,29.09,NW,315,5.8,5.8,25,0.00,CLR,,0.00,WeatherDisplay:10.37,2013-01-07 23:49:00,
2013-01-08 10:54:00,99.5,57.4,29.09,NE,45,10.0,10.0,25,0.00,CLR,,0.00,WeatherDisplay:10.37,2013-01-07 23:54:00,
2013-01-08 10:59:00,99.9,57.8,29.09,NW,315,6.0,6.0,25,0.00,CLR,,0.00,WeatherDisplay:10.37,2013-01-07 23:59:00,
2013-01-08 11:04:00,100.0,57.9,29.09,NW,315,8.7,8.7,25,0.00,CLR,,0.00,WeatherDisplay:10.37,2013-01-08 00:04:00,
2013-01-08 11:09:00,100.8,56.2,29.09,NNW,338,5.8,5.8,23,0.00,CLR,,0.00,WeatherDisplay:10.37,2013-01-08 00:09:00,
2013-01-08 11:14:00,100.0,54.4,29.09,NNW,338,10.4,10.4,22,0.00,CLR,,0.00,WeatherDisplay:10.37,2013-01-08 00:14:00,
2013-01-08 11:19:00,100.2,55.7,29.09,NNW,338,7.1,7.1,23,0.00,CLR,,0.00,WeatherDisplay:10.37,2013-01-08 00:19:00,
2013-01-08 11:24:00,100.6,54.8,29.09,WNW,292,9.4,9.4,22,0.00,CLR,,0.00,WeatherDisplay:10.37,2013-01-08 00:24:00,
2013-01-08 11:29:00,100.9,53.8,29.09,NW,315,12.8,12.8,21,0.00,CLR,,0.00,WeatherDisplay:10.37,2013-01-08 00:29:00,
2013-01-08 11:34:00,101.1,54.0,29.06,WNW,292,10.4,10.4,21,0.00,CLR,,0.00,WeatherDisplay:10.37,2013-01-08 00:34:00,
2013-01-08 11:39:00,101.5,54.3,29.06,West,270,11.5,11.5,21,0.00,CLR,,0.00,WeatherDisplay:10.37,2013-01-08 00:39:00,
2013-01-08 11:44:00,101.8,54.6,29.06,WNW,292,5.8,5.8,21,0.00,CLR,,0.00,WeatherDisplay:10.37,2013-01-08 00:44:00,
2013-01-08 11:49:00,102.6,53.8,29.03,NW,315,13.8,13.8,20,0.00,CLR,,0.00,WeatherDisplay:10.37,2013-01-08 00:49:00,
2013-01-08 11:54:00,102.4,52.3,29.03,NNW,338,5.8,5.8,19,0.00,CLR,,0.00,WeatherDisplay:10.37,2013-01-08 00:54:00,
2013-01-08 11:59:00,102.9,52.7,29.03,WNW,292,4.6,4.6,19,0.00,CLR,,0.00,WeatherDisplay:10.37,2013-01-08 00:59:00,
2013-01-08 12:04:00,103.1,52.9,29.03,NNW,338,4.6,4.6,19,0.00,CLR,,0.00,WeatherDisplay:10.37,2013-01-08 01:04:00,
2013-01-08 12:10:00,102.9,52.7,29.03,NW,315,10.4,10.4,19,0.00,CLR,,0.00,WeatherDisplay:10.37,2013-01-08 01:10:00,
2013-01-08 12:15:00,103.8,53.5,29.03,NNW,338,8.1,8.1,19,0.00,CLR,,0.00,WeatherDisplay:10.37,2013-01-08 01:15:00,
2013-01-08 12:20:00,103.8,53.5,29.03,NNE,22,7.1,7.1,19,0.00,CLR,,0.00,WeatherDisplay:10.37,2013-01-08 01:20:00,
2013-01-08 12:25:00,104.0,52.1,29.03,WNW,292,11.5,11.5,18,0.00,CLR,,0.00,WeatherDisplay:10.37,2013-01-08 01:25:00,
2013-01-08 12:30:00,104.7,52.7,29.03,NNW,338,8.1,8.1,18,0.00,CLR,,0.00,WeatherDisplay:10.37,2013-01-08 01:30:00,
2013-01-08 12:35:00,104.4,52.4,29.00,WNW,292,10.4,10.4,18,0.00,CLR,,0.00,WeatherDisplay:10.37,2013-01-08 01:35:00,
2013-01-08 12:40:00,104.4,50.9,29.00,WNW,292,14.5,14.5,17,0.00,CLR,,0.00,WeatherDisplay:10.37,2013-01-08 01:40:00,
2013-01-08 12:45:00,103.8,50.4,29.00,NNE,22,9.2,9.2,17,0.00,CLR,,0.00,WeatherDisplay:10.37,2013-01-08 01:45:00,
2013-01-08 12:50:00,104.2,50.7,29.00,NE,45,9.2,9.2,17,0.00,CLR,,0.00,WeatherDisplay:10.37,2013-01-08 01:50:00,
2013-01-08 12:55:00,104.7,52.7,29.00,West,270,5.8,5.8,18,0.00,CLR,,0.00,WeatherDisplay:10.37,2013-01-08 01:55:00,
2013-01-08 13:00:00,105.8,52.0,29.00,WNW,292,4.3,4.3,17,0.00,CLR,,0.00,WeatherDisplay:10.37,2013-01-08 02:00:00,
2013-01-08 13:05:00,106.2,52.3,28.97,NNE,22,4.6,4.6,17,0.00,CLR,,0.00,WeatherDisplay:10.37,2013-01-08 02:05:00,
2013-01-08 13:10:00,106.2,52.3,28.97,NNW,338,5.8,5.8,17,0.00,CLR,,0.00,WeatherDisplay:10.37,2013-01-08 02:10:00,
2013-01-08 13:15:00,105.8,50.4,28.97,NNE,22,5.9,5.9,16,0.00,CLR,,0.00,WeatherDisplay:10.37,2013-01-08 02:15:00,
2013-01-08 13:20:00,106.0,50.5,28.97,NNW,338,8.1,8.1,16,0.00,CLR,,0.00,WeatherDisplay:10.37,2013-01-08 02:20:00,
2013-01-08 13:25:00,104.9,49.7,28.97,NW,315,5.8,5.8,16,0.00,CLR,,0.00,WeatherDisplay:10.37,2013-01-08 02:25:00,
2013-01-08 13:30:00,104.7,51.2,28.97,WNW,292,8.1,8.1,17,0.00,CLR,,0.00,WeatherDisplay:10.37,2013-01-08 02:30:00,
2013-01-08 13:35:00,104.0,48.9,28.94,NNW,338,3.1,3.1,16,0.00,CLR,,0.00,WeatherDisplay:10.37,2013-01-08 02:35:00,
2013-01-08 13:40:00,104.0,48.9,28.94,NW,315,6.9,6.9,16,0.00,CLR,,0.00,WeatherDisplay:10.37,2013-01-08 02:40:00,
2013-01-08 13:45:00,105.3,49.9,28.94,WNW,292,11.5,11.5,16,0.00,CLR,,0.00,WeatherDisplay:10.37,2013-01-08 02:45:00,
2013-01-08 13:50:00,106.2,50.7,28.91,NNW,338,5.8,5.8,16,0.00,CLR,,0.00,WeatherDisplay:10.37,2013-01-08 02:50:00,
2013-01-08 13:55:00,106.3,50.8,28.91,NNW,338,9.2,9.2,16,0.00,CLR,,0.00,WeatherDisplay:10.37,2013-01-08 02:55:00,
2013-01-08 14:00:00,107.1,51.4,28.91,North,0,5.4,5.4,16,0.00,CLR,,0.00,WeatherDisplay:10.37,2013-01-08 03:00:00,
2013-01-08 14:05:00,106.9,49.5,28.91,WNW,292,12.7,12.7,15,0.00,CLR,,0.00,WeatherDisplay:10.37,2013-01-08 03:05:00,
2013-01-08 14:10:00,107.6,50.1,28.91,WNW,292,11.5,11.5,15,0.00,CLR,,0.00,WeatherDisplay:10.37,2013-01-08 03:10:00,
2013-01-08 14:15:00,107.4,49.9,28.91,NNW,338,3.6,3.6,15,0.00,CLR,,0.00,WeatherDisplay:10.37,2013-01-08 03:15:00,
2013-01-08 14:20:00,107.1,49.6,28.91,NW,315,17.3,17.3,15,0.00,CLR,,0.00,WeatherDisplay:10.37,2013-01-08 03:20:00,
2013-01-08 14:25:00,107.2,49.8,28.91,WNW,292,13.8,13.8,15,0.00,CLR,,0.00,WeatherDisplay:10.37,2013-01-08 03:25:00,
2013-01-08 14:30:00,107.8,50.2,28.91,NNW,338,4.6,4.6,15,0.00,CLR,,0.00,WeatherDisplay:10.37,2013-01-08 03:30:00,
2013-01-08 14:35:00,107.4,49.9,28.88,NW,315,8.1,8.1,15,0.00,CLR,,0.00,WeatherDisplay:10.37,2013-01-08 03:35:00,
2013-01-08 14:40:00,106.3,49.1,28.88,West,270,8.1,8.1,15,0.00,CLR,,0.00,WeatherDisplay:10.37,2013-01-08 03:40:00,
2013-01-08 14:45:00,107.1,49.6,28.88,NNW,338,4.6,4.6,15,0.00,CLR,,0.00,WeatherDisplay:10.37,2013-01-08 03:45:00,
2013-01-08 14:50:00,106.9,49.5,28.88,WNW,292,12.7,12.7,15,0.00,CLR,,0.00,WeatherDisplay:10.37,2013-01-08 03:50:00,
2013-01-08 14:55:00,106.0,48.8,28.88,WNW,292,9.2,9.2,15,0.00,CLR,,0.00,WeatherDisplay:10.37,2013-01-08 03:55:00,
2013-01-08 15:00:00,106.7,49.4,28.88,NW,315,5.8,5.8,15,0.00,CLR,,0.00,WeatherDisplay:10.37,2013-01-08 04:00:00,
2013-01-08 15:05:00,107.1,49.6,28.85,SW,225,5.8,5.8,15,0.00,CLR,,0.00,WeatherDisplay:10.37,2013-01-08 04:05:00,
2013-01-08 15:10:00,106.7,49.4,28.85,NNW,338,4.6,4.6,15,0.00,CLR,,0.00,WeatherDisplay:10.37,2013-01-08 04:10:00,
2013-01-08 15:15:00,106.9,49.5,28.85,WNW,292,4.6,4.6,15,0.00,CLR,,0.00,WeatherDisplay:10.37,2013-01-08 04:15:00,
2013-01-08 15:20:00,106.7,49.4,28.85,NW,315,9.2,9.2,15,0.00,CLR,,0.00,WeatherDisplay:10.37,2013-01-08 04:20:00,
2013-01-08 15:25:00,106.9,47.6,28.85,NW,315,11.5,11.5,14,0.00,CLR,,0.00,WeatherDisplay:10.37,2013-01-08 04:25:00,
2013-01-08 15:30:00,106.5,47.4,28.85,WNW,292,13.8,13.8,14,0.00,CLR,,0.00,WeatherDisplay:10.37,2013-01-08 04:30:00,
2013-01-08 15:35:00,105.1,48.1,28.85,NW,315,8.1,8.1,15,0.00,CLR,,0.00,WeatherDisplay:10.37,2013-01-08 04:35:00,
2013-01-08 15:40:00,104.2,47.4,28.85,NNW,338,5.6,5.6,15,0.00,CLR,,0.00,WeatherDisplay:10.37,2013-01-08 04:40:00,
2013-01-08 15:45:00,103.6,46.9,28.85,NNW,338,5.4,5.4,15,0.00,CLR,,0.00,WeatherDisplay:10.37,2013-01-08 04:45:00,
2013-01-08 15:50:00,103.5,46.8,28.82,West,270,10.0,10.0,15,0.00,CLR,,0.00,WeatherDisplay:10.37,2013-01-08 04:50:00,
2013-01-08 15:55:00,103.5,46.8,28.82,West,270,3.5,3.5,15,0.00,CLR,,0.00,WeatherDisplay:10.37,2013-01-08 04:55:00,
2013-01-08 16:00:00,103.6,46.9,28.82,NW,315,9.2,9.2,15,0.00,CLR,,0.00,WeatherDisplay:10.37,2013-01-08 05:00:00,
2013-01-08 16:03:00,103.5,46.8,28.79,NW,315,4.6,4.6,15,0.00,CLR,,0.00,WeatherDisplay:10.37,2013-01-08 05:03:00,
2013-01-08 16:08:00,104.0,47.2,28.79,NW,315,5.9,5.9,15,0.00,CLR,,0.00,WeatherDisplay:10.37,2013-01-08 05:08:00,
2013-01-08 16:13:00,105.1,48.1,28.79,SSW,202,5.8,5.8,15,0.00,CLR,,0.00,WeatherDisplay:10.37,2013-01-08 05:13:00,
2013-01-08 16:18:00,105.4,48.4,28.79,WNW,292,3.6,3.6,15,0.00,CLR,,0.00,WeatherDisplay:10.37,2013-01-08 05:18:00,
2013-01-08 16:23:00,105.3,48.2,28.79,West,270,8.1,8.1,15,0.00,CLR,,0.00,WeatherDisplay:10.37,2013-01-08 05:23:00,
2013-01-08 16:28:00,104.9,47.9,28.79,NE,45,5.8,5.8,15,0.00,CLR,,0.00,WeatherDisplay:10.37,2013-01-08 05:28:00,
2013-01-08 16:33:00,104.7,47.8,28.76,NNE,22,3.5,3.5,15,0.00,CLR,,0.00,WeatherDisplay:10.37,2013-01-08 05:33:00,
2013-01-08 16:38:00,105.3,48.2,28.76,NNW,338,6.9,6.9,15,0.00,CLR,,0.00,WeatherDisplay:10.37,2013-01-08 05:38:00,
2013-01-08 16:43:00,105.3,48.2,28.76,NNW,338,17.3,17.3,15,0.00,CLR,,0.00,WeatherDisplay:10.37,2013-01-08 05:43:00,
2013-01-08 16:48:00,104.9,47.9,28.79,West,270,12.7,12.7,15,0.00,CLR,,0.00,WeatherDisplay:10.37,2013-01-08 05:48:00,
2013-01-08 16:53:00,105.3,48.2,28.79,WNW,292,6.9,6.9,15,0.00,CLR,,0.00,WeatherDisplay:10.37,2013-01-08 05:53:00,
2013-01-08 16:58:00,104.4,45.7,28.79,North,0,6.9,6.9,14,0.00,CLR,,0.00,WeatherDisplay:10.37,2013-01-08 05:58:00,
2013-01-08 17:03:00,104.5,45.8,28.79,North,0,7.6,7.6,14,0.00,CLR,,0.00,WeatherDisplay:10.37,2013-01-08 06:03:00,
2013-01-08 17:08:00,104.4,47.5,28.79,West,270,12.8,12.8,15,0.00,CLR,,0.00,WeatherDisplay:10.37,2013-01-08 06:08:00,
2013-01-08 17:13:00,104.5,47.6,28.79,NNW,338,7.1,7.1,15,0.00,CLR,,0.00,WeatherDisplay:10.37,2013-01-08 06:13:00,
2013-01-08 17:18:00,103.8,47.1,28.76,NW,315,6.2,6.2,15,0.00,CLR,,0.00,WeatherDisplay:10.37,2013-01-08 06:18:00,
2013-01-08 17:23:00,103.5,46.8,28.76,WNW,292,12.7,12.7,15,0.00,CLR,,0.00,WeatherDisplay:10.37,2013-01-08 06:23:00,
2013-01-08 17:28:00,103.3,46.7,28.76,NNE,22,6.9,6.9,15,0.00,CLR,,0.00,WeatherDisplay:10.37,2013-01-08 06:28:00,
2013-01-08 17:33:00,103.3,46.7,28.76,NE,45,5.9,6.9,15,0.00,CLR,,0.00,WeatherDisplay:10.37,2013-01-08 06:33:00,
2013-01-08 17:38:00,103.3,46.7,28.76,NNW,338,5.8,5.8,15,0.00,CLR,,0.00,WeatherDisplay:10.37,2013-01-08 06:38:00,
2013-01-08 17:43:00,103.1,46.5,28.76,WNW,292,12.1,12.1,15,0.00,CLR,,0.00,WeatherDisplay:10.37,2013-01-08 06:43:00,
2013-01-08 17:48:00,102.7,46.2,28.73,West,270,10.4,10.4,15,0.00,CLR,,0.00,WeatherDisplay:10.37,2013-01-08 06:48:00,
2013-01-08 17:53:00,102.6,46.1,28.73,WNW,292,9.2,9.2,15,0.00,CLR,,0.00,WeatherDisplay:10.37,2013-01-08 06:53:00,
2013-01-08 17:58:00,102.2,45.8,28.73,NNW,338,5.8,5.8,15,0.00,CLR,,0.00,WeatherDisplay:10.37,2013-01-08 06:58:00,
2013-01-08 18:03:00,102.0,45.7,28.73,West,270,9.2,9.2,15,0.00,CLR,,0.00,WeatherDisplay:10.37,2013-01-08 07:03:00,
2013-01-08 18:08:00,101.7,45.4,28.73,NW,315,9.2,9.2,15,0.00,CLR,,0.00,WeatherDisplay:10.37,2013-01-08 07:08:00,
2013-01-08 18:13:00,101.5,45.2,28.73,WNW,292,6.9,6.9,15,0.00,CLR,,0.00,WeatherDisplay:10.37,2013-01-08 07:13:00,
2013-01-08 18:18:00,101.1,44.9,28.73,NNW,338,8.1,8.1,15,0.00,CLR,,0.00,WeatherDisplay:10.37,2013-01-08 07:18:00,
2013-01-08 18:23:00,100.9,44.8,28.73,West,270,17.3,17.3,15,0.00,CLR,,0.00,WeatherDisplay:10.37,2013-01-08 07:23:00,
2013-01-08 18:28:00,100.6,44.5,28.73,NNW,338,3.5,3.5,15,0.00,CLR,,0.00,WeatherDisplay:10.37,2013-01-08 07:28:00,
2013-01-08 18:33:00,100.4,44.4,28.73,NNW,338,9.2,9.2,15,0.00,CLR,,0.00,WeatherDisplay:10.37,2013-01-08 07:33:00,
2013-01-08 18:38:00,100.2,45.9,28.73,WNW,292,11.5,11.5,16,0.00,CLR,,0.00,WeatherDisplay:10.37,2013-01-08 07:38:00,
2013-01-08 18:43:00,99.9,45.6,28.73,NNW,338,6.2,6.2,16,0.00,CLR,,0.00,WeatherDisplay:10.37,2013-01-08 07:43:00,
2013-01-08 18:48:00,99.5,45.4,28.73,NNW,338,10.4,10.4,16,0.00,CLR,,0.00,WeatherDisplay:10.37,2013-01-08 07:48:00,
2013-01-08 18:53:00,99.5,45.4,28.73,WNW,292,13.2,13.2,16,0.00,CLR,,0.00,WeatherDisplay:10.37,2013-01-08 07:53:00,
2013-01-08 18:58:00,99.3,45.2,28.73,NW,315,4.9,4.9,16,0.00,CLR,,0.00,WeatherDisplay:10.37,2013-01-08 07:58:00,
2013-01-08 19:03:00,99.3,45.2,28.73,NW,315,5.4,6.4,16,0.00,CLR,,0.00,WeatherDisplay:10.37,2013-01-08 08:03:00,
2013-01-08 19:08:00,99.0,44.9,28.73,NW,315,5.8,5.8,16,0.00,CLR,,0.00,WeatherDisplay:10.37,2013-01-08 08:08:00,
2013-01-08 19:13:00,98.8,44.8,28.73,NNW,338,8.1,8.1,16,0.00,CLR,,0.00,WeatherDisplay:10.37,2013-01-08 08:13:00,
2013-01-08 19:18:00,98.4,44.5,28.73,WNW,292,5.9,5.9,16,0.00,CLR,,0.00,WeatherDisplay:10.37,2013-01-08 08:18:00,
2013-01-08 19:23:00,98.2,46.0,28.73,NNE,22,10.9,10.9,17,0.00,CLR,,0.00,WeatherDisplay:10.37,2013-01-08 08:23:00,
2013-01-08 19:28:00,98.1,45.8,28.73,NW,315,4.6,4.6,17,0.00,CLR,,0.00,WeatherDisplay:10.37,2013-01-08 08:28:00,
2013-01-08 19:33:00,97.9,45.7,28.76,WNW,292,6.0,6.0,17,0.00,CLR,,0.00,WeatherDisplay:10.37,2013-01-08 08:33:00,
2013-01-08 19:38:00,97.5,45.4,28.76,NNW,338,5.8,5.8,17,0.00,CLR,,0.00,WeatherDisplay:10.37,2013-01-08 08:38:00,
2013-01-08 19:43:00,97.2,45.1,28.76,NNW,338,6.0,6.0,17,0.00,CLR,,0.00,WeatherDisplay:10.37,2013-01-08 08:43:00,
2013-01-08 19:48:00,97.0,44.9,28.76,West,270,10.9,10.9,17,0.00,CLR,,0.00,WeatherDisplay:10.37,2013-01-08 08:48:00,
2013-01-08 19:53:00,96.6,44.7,28.76,NNW,338,6.9,6.9,17,0.00,CLR,,0.00,WeatherDisplay:10.37,2013-01-08 08:53:00,
2013-01-08 19:58:00,96.4,44.5,28.76,SW,225,5.8,5.8,17,0.00,CLR,,0.00,WeatherDisplay:10.37,2013-01-08 08:58:00,
2013-01-08 20:03:00,96.3,44.4,28.76,WSW,248,5.8,5.8,17,0.00,CLR,,0.00,WeatherDisplay:10.37,2013-01-08 09:03:00,
2013-01-08 20:08:00,95.7,43.9,28.76,West,270,5.8,5.8,17,0.00,CLR,,0.00,WeatherDisplay:10.37,2013-01-08 09:08:00,
2013-01-08 20:13:00,95.5,43.8,28.76,WNW,292,3.8,3.8,17,0.00,CLR,,0.00,WeatherDisplay:10.37,2013-01-08 09:13:00,
2013-01-08 20:18:00,95.2,43.5,28.76,West,270,6.9,6.9,17,0.00,CLR,,0.00,WeatherDisplay:10.37,2013-01-08 09:18:00,
2013-01-08 20:23:00,95.0,43.4,28.76,WNW,292,3.5,3.5,17,0.00,CLR,,0.00,WeatherDisplay:10.37,2013-01-08 09:23:00,
2013-01-08 20:28:00,94.8,44.7,28.76,North,0,8.1,8.1,18,0.00,CLR,,0.00,WeatherDisplay:10.37,2013-01-08 09:28:00,
2013-01-08 20:33:00,94.5,44.4,28.76,West,270,8.7,8.7,18,0.00,CLR,,0.00,WeatherDisplay:10.37,2013-01-08 09:33:00,
2013-01-08 20:38:00,94.3,44.3,28.76,West,270,5.9,5.9,18,0.00,CLR,,0.00,WeatherDisplay:10.37,2013-01-08 09:38:00,
2013-01-08 20:43:00,94.3,44.3,28.76,NW,315,3.5,3.5,18,0.00,CLR,,0.00,WeatherDisplay:10.37,2013-01-08 09:43:00,
2013-01-08 20:48:00,93.9,44.0,28.76,WNW,292,4.6,4.6,18,0.00,CLR,,0.00,WeatherDisplay:10.37,2013-01-08 09:48:00,
2013-01-08 20:53:00,93.7,43.8,28.76,North,0,3.5,3.5,18,0.00,CLR,,0.00,WeatherDisplay:10.37,2013-01-08 09:53:00,
2013-01-08 20:58:00,93.7,43.8,28.76,NNW,338,5.8,5.8,18,0.00,CLR,,0.00,WeatherDisplay:10.37,2013-01-08 09:58:00,
2013-01-08 21:03:00,93.6,43.7,28.76,NNE,22,8.1,8.1,18,0.00,CLR,,0.00,WeatherDisplay:10.37,2013-01-08 10:03:00,
2013-01-08 21:08:00,93.4,43.5,28.76,NW,315,4.6,4.6,18,0.00,CLR,,0.00,WeatherDisplay:10.37,2013-01-08 10:08:00,
2013-01-08 21:13:00,93.2,43.4,28.76,NE,45,9.2,9.2,18,0.00,CLR,,0.00,WeatherDisplay:10.37,2013-01-08 10:13:00,
2013-01-08 21:18:00,93.0,43.2,28.76,SW,225,13.8,13.8,18,0.00,CLR,,0.00,WeatherDisplay:10.37,2013-01-08 10:18:00,
2013-01-08 21:23:00,93.0,43.2,28.76,NNW,338,5.8,5.8,18,0.00,CLR,,0.00,WeatherDisplay:10.37,2013-01-08 10:23:00,
2013-01-08 21:28:00,92.8,43.1,28.76,NNW,338,9.2,9.2,18,0.00,CLR,,0.00,WeatherDisplay:10.37,2013-01-08 10:28:00,
2013-01-08 21:33:00,92.7,43.0,28.76,SSW,202,8.1,8.1,18,0.00,CLR,,0.00,WeatherDisplay:10.37,2013-01-08 10:33:00,
2013-01-08 21:38:00,92.7,43.0,28.76,NNE,22,8.1,8.1,18,0.00,CLR,,0.00,WeatherDisplay:10.37,2013-01-08 10:38:00,
2013-01-08 21:43:00,92.3,42.7,28.76,West,270,5.8,5.8,18,0.00,CLR,,0.00,WeatherDisplay:10.37,2013-01-08 10:43:00,
2013-01-08 21:48:00,92.1,42.5,28.76,SW,225,9.2,9.2,18,0.00,CLR,,0.00,WeatherDisplay:10.37,2013-01-08 10:48:00,
2013-01-08 21:53:00,92.1,42.5,28.76,West,270,8.1,8.1,18,0.00,CLR,,0.00,WeatherDisplay:10.37,2013-01-08 10:53:00,
2013-01-08 21:58:00,92.1,42.5,28.76,SW,225,5.8,5.8,18,0.00,CLR,,0.00,WeatherDisplay:10.37,2013-01-08 10:58:00,
2013-01-08 22:03:00,92.1,42.5,28.76,NE,45,3.5,3.5,18,0.00,CLR,,0.00,WeatherDisplay:10.37,2013-01-08 11:03:00,
2013-01-08 22:08:00,91.9,42.4,28.76,NNW,338,5.8,5.8,18,0.00,CLR,,0.00,WeatherDisplay:10.37,2013-01-08 11:08:00,
2013-01-08 22:13:00,91.9,42.4,28.76,WSW,248,2.3,2.3,18,0.00,CLR,,0.00,WeatherDisplay:10.37,2013-01-08 11:13:00,
2013-01-08 22:19:00,91.6,42.1,28.76,WNW,292,4.6,4.6,18,0.00,CLR,,0.00,WeatherDisplay:10.37,2013-01-08 11:19:00,
2013-01-08 22:24:00,91.8,42.2,28.76,NNW,338,19.6,19.6,18,0.00,CLR,,0.00,WeatherDisplay:10.37,2013-01-08 11:24:00,
2013-01-08 22:29:00,91.8,42.2,28.76,WSW,248,15.0,15.0,18,0.00,CLR,,0.00,WeatherDisplay:10.37,2013-01-08 11:29:00,
2013-01-08 22:34:00,91.6,42.1,28.76,NW,315,5.8,5.8,18,0.00,CLR,,0.00,WeatherDisplay:10.37,2013-01-08 11:34:00,
2013-01-08 22:39:00,91.4,41.9,28.76,NNW,338,12.7,12.7,18,0.00,CLR,,0.00,WeatherDisplay:10.37,2013-01-08 11:39:00,
2013-01-08 22:44:00,91.4,41.9,28.76,WSW,248,16.6,16.6,18,0.00,CLR,,0.00,WeatherDisplay:10.37,2013-01-08 11:44:00,
2013-01-08 22:49:00,91.2,43.2,28.76,WSW,248,8.1,8.1,19,0.00,CLR,,0.00,WeatherDisplay:10.37,2013-01-08 11:49:00,
2013-01-08 22:54:00,91.0,43.0,28.76,WNW,292,6.0,6.0,19,0.00,CLR,,0.00,WeatherDisplay:10.37,2013-01-08 11:54:00,
2013-01-08 22:59:00,91.2,43.2,28.76,NNE,22,5.8,5.8,19,0.00,CLR,,0.00,WeatherDisplay:10.37,2013-01-08 11:59:00,
2013-01-08 23:04:00,91.0,43.0,28.76,WSW,248,7.8,7.8,19,0.00,CLR,,0.00,WeatherDisplay:10.37,2013-01-08 12:04:00,
2013-01-08 23:09:00,90.7,42.8,28.76,West,270,3.5,3.5,19,0.00,CLR,,0.00,WeatherDisplay:10.37,2013-01-08 12:09:00,
2013-01-08 23:14:00,90.7,42.8,28.76,NW,315,6.9,6.9,19,0.00,CLR,,0.00,WeatherDisplay:10.37,2013-01-08 12:14:00,
2013-01-08 23:19:00,90.3,42.5,28.76,North,0,8.5,8.5,19,0.00,CLR,,0.00,WeatherDisplay:10.37,2013-01-08 12:19:00,
2013-01-08 23:24:00,90.5,42.6,28.76,NE,45,8.1,8.1,19,0.00,CLR,,0.00,WeatherDisplay:10.37,2013-01-08 12:24:00,
2013-01-08 23:29:00,90.3,42.5,28.76,SW,225,10.4,10.4,19,0.00,CLR,,0.00,WeatherDisplay:10.37,2013-01-08 12:29:00,
2013-01-08 23:34:00,90.1,42.3,28.73,West,270,13.8,13.8,19,0.00,CLR,,0.00,WeatherDisplay:10.37,2013-01-08 12:34:00,
2013-01-08 23:39:00,90.0,42.2,28.73,WNW,292,6.9,6.9,19,0.00,CLR,,0.00,WeatherDisplay:10.37,2013-01-08 12:39:00,
2013-01-08 23:44:00,90.0,42.2,28.73,West,270,5.6,5.6,19,0.00,CLR,,0.00,WeatherDisplay:10.37,2013-01-08 12:44:00,
2013-01-08 23:49:00,89.8,42.0,28.73,NW,315,8.1,8.1,19,0.00,CLR,,0.00,WeatherDisplay:10.37,2013-01-08 12:49:00,
2013-01-08 23:54:00,89.6,41.9,28.73,WNW,292,10.5,10.5,19,0.00,CLR,,0.00,WeatherDisplay:10.37,2013-01-08 12:54:00,
2013-01-08 23:59:00,89.6,41.9,28.73,NNE,22,6.9,6.9,19,0.00,CLR,,0.00,WeatherDisplay:10.37,2013-01-08 12:59:00,